Weather History for Alexander City, AL

Change the Weather History Date:

Wednesday, November 21, 2012

  Actual Average (KAUO) Record (KAUO)
Temperature  
Mean Temperature 58 °F -  
Max Temperature 74 °F - 79 °F (1979)
Min Temperature 42 °F - 22 °F (1968)
Degree Days  
Heating Degree Days 7    
Month to date heating degree days  
Since 1 July heating degree days  
Growing Degree Days 8 (Base 50)    
Moisture  
Dew Point 44 °F    
Average Humidity 67    
Maximum Humidity 90    
Minimum Humidity 29    
Precipitation  
Precipitation 0.00 in - 2.00 in (1962)
Month to date precipitation  
Year to date precipitation  
Sea Level Pressure  
Sea Level Pressure 30.15 in    
Wind  
Wind Speed 1 mph (NNW)    
Max Wind Speed 12 mph    
Max Gust Speed -    
Visibility 10 miles    
Events      
T = Trace of Precipitation, MM = Missing Value Source: NWS Daily Summary

Daily Weather History Graph

Daily Weather History Graph

Search for Another Location

Airport:

Trip Planner

Search our weather history database for the weather conditions in past years. The results will help you decide how hot, cold, wet, or windy it might be!

Date:

Astronomy

Nov. 21, 2012 Rise Set
Actual Time 6:20 AM CST 4:39 PM CST
Civil Twilight 5:53 AM CST 5:05 PM CST
Nautical Twilight 5:23 AM CST 5:35 PM CST
Astronomical Twilight 4:53 AM CST 6:05 PM CST
Moon 12:37 PM CST (11/21) No Moon Set
Length of Visible Light 11h 12m
Length of Day
10h 19m
First Quarter, 62% of the Moon is Illuminated
Nov 21
First Quarter
Nov 28
Full
Dec 6
Last Quarter
Dec 13
New
Dec 19
First Quarter

Hourly Weather History & Observations

Time (CST) Temp. Dew Point Humidity Pressure Visibility Wind Dir Wind Speed Gust Speed Precip Events Conditions
12:15 AM 43.7 °F 39.9 °F 87% 30.12 in 10.0 mi Calm Calm - N/A   Clear
12:35 AM 44.4 °F 40.5 °F 86% 30.12 in 10.0 mi Calm Calm - N/A   Clear
12:55 AM 45.0 °F 41.4 °F 87% 30.12 in 10.0 mi Calm Calm - N/A   Clear
1:15 AM 49.5 °F 45.5 °F 86% 30.12 in 10.0 mi Calm Calm - N/A   Scattered Clouds
1:35 AM 49.6 °F 45.7 °F 86% 30.12 in 10.0 mi Calm Calm - N/A   Scattered Clouds
1:55 AM 49.6 °F 46.2 °F 88% 30.12 in 10.0 mi Calm Calm - N/A   Clear
2:15 AM 49.6 °F 46.4 °F 89% 30.12 in 10.0 mi Calm Calm - N/A   Scattered Clouds
2:35 AM 49.6 °F 46.4 °F 89% 30.12 in 7.0 mi Calm Calm - N/A   Scattered Clouds
2:55 AM 49.6 °F 45.9 °F 87% 30.12 in 10.0 mi Calm Calm - N/A   Clear
3:15 AM 48.6 °F 44.8 °F 87% 30.12 in 10.0 mi Calm Calm - N/A   Scattered Clouds
3:35 AM 47.3 °F 43.7 °F 87% 30.12 in 10.0 mi Calm Calm - N/A   Clear
3:55 AM 47.3 °F 43.7 °F 87% 30.12 in 10.0 mi Calm Calm - N/A   Clear
4:15 AM 47.5 °F 43.9 °F 87% 30.12 in 10.0 mi Calm Calm - N/A   Clear
4:35 AM 47.1 °F 43.5 °F 87% 30.13 in 10.0 mi Calm Calm - N/A   Scattered Clouds
4:55 AM 46.8 °F 43.3 °F 88% 30.13 in 10.0 mi Calm Calm - N/A   Scattered Clouds
5:15 AM 43.5 °F 40.3 °F 88% 30.12 in 10.0 mi Calm Calm - N/A   Clear
5:35 AM 43.7 °F 40.6 °F 89% 30.13 in 10.0 mi Calm Calm - N/A   Clear
5:55 AM 43.7 °F 40.6 °F 89% 30.14 in 10.0 mi Calm Calm - N/A   Clear
6:15 AM 43.7 °F 40.5 °F 88% 30.14 in 7.0 mi Calm Calm - N/A   Clear
6:35 AM 42.1 °F 39.2 °F 90% 30.14 in 10.0 mi Calm Calm - N/A   Clear
6:55 AM 42.8 °F 39.6 °F 88% 30.14 in 7.0 mi Calm Calm - N/A   Clear
7:15 AM 47.3 °F 43.9 °F 88% 30.16 in 10.0 mi Calm Calm - N/A   Clear
7:35 AM 49.6 °F 45.5 °F 86% 30.16 in 10.0 mi Calm Calm - N/A   Clear
7:55 AM 51.3 °F 46.8 °F 85% 30.16 in 10.0 mi Calm Calm - N/A   Clear
8:15 AM 54.7 °F 48.6 °F 80% 30.16 in 10.0 mi Calm Calm - N/A   Clear
8:35 AM 59.9 °F 49.1 °F 67% 30.17 in 10.0 mi Calm Calm - N/A   Clear
8:55 AM 61.0 °F 46.6 °F 59% 30.18 in 10.0 mi Calm Calm - N/A   Clear
9:15 AM 62.8 °F 45.7 °F 54% 30.18 in 10.0 mi Calm Calm - N/A   Clear
9:35 AM 64.8 °F 46.0 °F 51% 30.18 in 10.0 mi North 3.5 mph - N/A   Clear
9:55 AM 69.8 °F 48.4 °F 46% 30.18 in 10.0 mi North 5.8 mph - N/A   Clear
10:15 AM 69.8 °F 46.2 °F 43% 30.17 in 10.0 mi North 3.5 mph - N/A   Clear
10:35 AM 69.8 °F 44.1 °F 39% 30.17 in 10.0 mi North 6.9 mph - N/A   Clear
10:55 AM 70.7 °F 44.4 °F 39% 30.16 in 10.0 mi NNE 3.5 mph - N/A   Clear
11:15 AM 73.4 °F 45.5 °F 37% 30.15 in 10.0 mi ESE 3.5 mph - N/A   Clear
11:35 AM 74.8 °F 46.0 °F 36% 30.15 in 10.0 mi North 5.8 mph - N/A   Clear
11:55 AM 74.8 °F 44.8 °F 34% 30.14 in 10.0 mi Calm Calm - N/A   Scattered Clouds
12:15 PM 72.3 °F 43.0 °F 35% 30.14 in 10.0 mi North 5.8 mph - N/A   Scattered Clouds
12:35 PM 74.8 °F 41.9 °F 31% 30.13 in 10.0 mi NNW 4.6 mph - N/A   Scattered Clouds
12:55 PM 74.8 °F 42.6 °F 31% 30.13 in 10.0 mi NW 3.5 mph - N/A   Scattered Clouds
1:15 PM 74.8 °F 42.1 °F 31% 30.13 in 10.0 mi North 8.1 mph - N/A   Scattered Clouds
1:35 PM 74.8 °F 42.1 °F 31% 30.12 in 10.0 mi NNW 9.2 mph - N/A   Clear
1:55 PM 74.8 °F 42.1 °F 31% 30.12 in 10.0 mi NW 6.9 mph - N/A   Clear
2:15 PM 74.8 °F 40.6 °F 29% 30.12 in 10.0 mi NNW 9.2 mph - N/A   Scattered Clouds
2:35 PM 74.8 °F 41.0 °F 30% 30.12 in 10.0 mi North 9.2 mph - N/A   Clear
2:55 PM 74.8 °F 42.3 °F 31% 30.12 in 10.0 mi NW 11.5 mph - N/A   Clear
3:15 PM 74.8 °F 43.0 °F 32% 30.12 in 10.0 mi NW 9.2 mph - N/A   Clear
3:35 PM 72.5 °F 41.9 °F 33% 30.13 in 10.0 mi NNW 6.9 mph - N/A   Clear
3:55 PM 71.6 °F 42.3 °F 35% 30.13 in 10.0 mi North 8.1 mph - N/A   Clear
4:15 PM 69.8 °F 42.3 °F 37% 30.13 in 10.0 mi NNW 4.6 mph - N/A   Clear
4:35 PM 69.8 °F 45.3 °F 41% 30.13 in 10.0 mi North 4.6 mph - N/A   Clear
4:55 PM 64.8 °F 45.0 °F 49% 30.13 in 10.0 mi Calm Calm - N/A   Clear
5:15 PM 62.2 °F 45.5 °F 54% 30.14 in 10.0 mi Calm Calm - N/A   Clear
5:35 PM 59.9 °F 46.4 °F 61% 30.15 in 10.0 mi Calm Calm - N/A   Clear
5:55 PM 59.9 °F 46.0 °F 60% 30.16 in 10.0 mi Calm Calm - N/A   Clear
6:15 PM 57.2 °F 46.4 °F 67% 30.16 in 10.0 mi Calm Calm - N/A   Clear
6:35 PM 56.8 °F 47.1 °F 70% 30.16 in 10.0 mi Calm Calm - N/A   Clear
6:55 PM 54.7 °F 46.4 °F 74% 30.16 in 10.0 mi Calm Calm - N/A   Clear
7:15 PM 54.7 °F 46.4 °F 74% 30.16 in 10.0 mi Calm Calm - N/A   Clear
7:35 PM 54.7 °F 47.1 °F 76% 30.16 in 10.0 mi Calm Calm - N/A   Clear
7:55 PM 54.7 °F 48.6 °F 80% 30.17 in 10.0 mi Calm Calm - N/A   Clear
8:15 PM 50.9 °F 45.1 °F 81% 30.17 in 10.0 mi Calm Calm - N/A   Clear
8:35 PM 52.2 °F 46.0 °F 80% 30.17 in 10.0 mi Calm Calm - N/A   Clear
8:55 PM 49.6 °F 45.0 °F 84% 30.17 in 10.0 mi Calm Calm - N/A   Clear
9:15 PM 49.6 °F 45.3 °F 85% 30.18 in 10.0 mi Calm Calm - N/A   Clear
9:35 PM 49.6 °F 44.8 °F 83% 30.18 in 10.0 mi Calm Calm - N/A   Clear
9:55 PM 47.8 °F 42.4 °F 82% 30.18 in 10.0 mi Calm Calm - N/A   Clear
10:15 PM 49.6 °F 45.9 °F 87% 30.18 in 10.0 mi Calm Calm - N/A   Clear
10:35 PM 49.6 °F 45.9 °F 87% 30.18 in 10.0 mi Calm Calm - N/A   Clear
10:55 PM 49.5 °F 45.7 °F 87% 30.18 in 10.0 mi Calm Calm - N/A   Clear
11:15 PM 49.6 °F 45.5 °F 86% 30.18 in 10.0 mi Calm Calm - N/A   Clear
11:35 PM 45.0 °F 40.8 °F 85% 30.18 in 7.0 mi Calm Calm - N/A   Clear
11:55 PM 44.2 °F 40.6 °F 87% 30.19 in 7.0 mi Calm Calm - N/A   Clear